Location: Caltech
(34.1382°N, 118.1253°W)
Time: 09:56:22
(UTC-07:00)

Iridium 18 - Visible Passes

Search period start: 27 August 2014 00:00
Search period end: 06 September 2014 00:00
Orbit: 776 x 779 km, 86.4° (Epoch: 27 August)

Date Brightness Start Highest point End Pass type
(mag) Time Alt. Az. Time Alt. Az. Time Alt. Az.
27 Aug 6.7 20:43:29 10° NNW 20:48:23 43° W 20:53:16 10° SSW visible
28 Aug 5.6 20:09:44 10° N 20:14:57 85° W 20:20:09 10° S visible
29 Aug 8.4 21:18:43 10° NW 21:21:37 15° W 21:24:30 10° WSW visible
30 Aug 7.6 20:43:56 10° NNW 20:48:22 29° W 20:52:47 10° SW visible
31 Aug 6.3 20:09:54 10° N 20:15:00 57° W 20:20:04 10° SSW visible
01 Sep 5.5 19:36:18 10° N 19:41:31 74° E 19:46:42 10° S visible
02 Sep 8.3 20:44:38 10° NW 20:48:18 20° W 20:51:57 10° SW visible
03 Sep 7.2 20:10:14 10° NNW 20:15:00 38° W 20:19:45 10° SSW visible
04 Sep 5.8 19:36:23 10° N 19:41:36 75° W 19:46:46 10° S visible
05 Sep 8.7 20:45:52 10° NW 20:48:11 13° W 20:50:30 10° WSW visible
